Regional Weather Roundup
Issued by NWS

Home | Current Version | Previous Version | Graphics & Text | Print | Product List | Glossary On
Versions: 1 2 3 4 5 6 7 8 9 10 11 12 13 14 15 16 17 18 19 20 21 22 23 24 25 26 27 28 29 30 31 32 33 34 35 36 37 38 39 40 41 42 43 44 45 46 47 48 49 50
000
ASUS43 KMPX 230801
RWRMN
WEATHER ROUNDUP FOR MINNESOTA
NATIONAL WEATHER SERVICE TWIN CITIES/CHANHASSEN MN
200 AM CST TUE JAN 23 2018


NOTE: "FAIR" INDICATES FEW OR NO CLOUDS BELOW 12,000 FEET WITH NO
SIGNIFICANT WEATHER AND/OR OBSTRUCTIONS TO VISIBILITY. N/A MEANS
CURRENT SKY AND/OR WEATHER CONDITIONS ARE NOT AVAILABLE.

MNZ060>063-068>070-230900-
   Twin Cities Metro

CITY           SKY/WX    TMP DP  RH WIND       PRES   REMARKS
TWIN CITIES    CLOUDY    25  19  78 N14       29.85R WCI  13
ST PAUL        CLOUDY    25  18  74 N10G22    29.86R WCI  15
CRYSTAL        MOCLDY    24  14  65 N14       29.86R WCI  12
BLAINE         MOCLDY    25  18  74 N17       29.86R WCI  11
LAKEVILLE      CLOUDY    25  19  80 N10G22    29.84  WCI  15
EDEN PRAIRIE   CLOUDY    26  18  71 N10G21    29.84R WCI  16
SOUTH ST PAUL  CLOUDY    26  19  74 N15G23    29.84R WCI  14
LAKE ELMO      CLOUDY    27  19  74 N9        29.85R WCI  17
$$
MNZ001>005-007-008-013>017-022>024-027-028-230900-
   Northwest Minnesota

CITY           SKY/WX    TMP DP  RH WIND       PRES   REMARKS
BEMIDJI        CLOUDY    19  15  83 N7        29.98S WCI  10
HALLOCK        CLOUDY    21  16  79 CALM      30.07S
ROSEAU         CLOUDY    19  16  86 CALM      30.06R
WARROAD        CLOUDY    18  12  79 N6        30.05S WCI   9
CROOKSTON      CLOUDY    21  18  86 N8        30.08R WCI  12
FOSSTON        CLOUDY    18  14  86 NE8       30.02R WCI   7
DETROIT LAKES  CLOUDY    23  18  80 N7        30.00R WCI  15
MOORHEAD       CLOUDY    21  18  86 N9        30.05R WCI  11
PARK RAPIDS    CLOUDY    20  15  81 N10       29.95S WCI   9
MAHNOMEN       CLOUDY    20  16  83 N8        30.00S WCI  11
$$
MNZ006-009>011-018-025>026-230900-
   North Central Minnesota

CITY           SKY/WX    TMP DP  RH WIND       PRES   REMARKS
BAUDETTE       CLOUDY    15  10  80 N9        30.02R WCI   3
FLAG ISLAND    CLOUDY    14  10  85 N7        30.05S WCI   4
INTL FALLS     FAIR      10   5  80 N10       30.01S WCI  -4
WASKISH        CLOUDY    18  14  86 NE6       30.01R WCI   9
BIG FORK       CLOUDY    12   9  85 N5        29.98R WCI   4
LONGVILLE      FAIR      18  14  86 N6        29.96R WCI   9
GRAND RAPIDS   FAIR      13  10  88 N13       29.96R WCI  -2
CRANE LAKE     FAIR       3   1  92 N5        30.01S WCI  -6
ORR            FAIR       7   1  78 CALM      29.95R
COOK           CLOUDY     7   3  85 CALM      29.96R
WALKER         FAIR      18  13  83 N6        29.97S WCI   9
$$
MNZ012-019>021-037-230900-
   Northeast Minnesota

CITY           SKY/WX    TMP DP  RH WIND       PRES   REMARKS
DULUTH         FAIR      13   8  81 N9        29.86R WCI   1
HIBBING        FAIR       8   5  87 N13       29.93R WCI  -8
EVELETH        FAIR      10   4  78 NE7       29.93R WCI  -2
DULUTH HARBOR  MOCLDY    19  16  86 N16       29.92R WCI   5
TWO HARBORS    FAIR      16   9  73 NW6       29.86R WCI   7
SILVER BAY     FAIR      10   7  85 VRB3      29.87R
GRAND MARAIS     N/A     14   5  67 VRB7      29.90R WCI   4
G MARAIS ARPRT CLOUDY     3  -2  78 N13G20    29.81R WCI -14
$$
MNZ029>031-032-039>041-046>048-054>057-064-230900-
   West Central Minnesota

CITY           SKY/WX    TMP DP  RH WIND       PRES   REMARKS
FERGUS FALLS   CLOUDY    21  18  86 N8        30.00S WCI  12
WHEATON        CLOUDY    23  18  80 N8        30.04R WCI  14
MORRIS         CLOUDY    25  18  74 N12G22    29.98R WCI  14
ALEXANDRIA     CLOUDY    22  17  81 N15G22    29.95R WCI   9
ELBOW LAKE     CLOUDY    23  17  80 N10       29.99R WCI  12
WADENA         CLOUDY    19  16  86 N7        29.96R WCI  10
GLENWOOD       FAIR      21  18  86 N14       29.95R WCI   8
APPLETON       CLOUDY    27  19  74 N10G16    29.99R WCI  17
BENSON         CLOUDY    25  18  74 NE13G22   29.99R WCI  13
ORTONVILLE     CLOUDY    23  19  86 N18G24    30.00R WCI   9
MADISON        CLOUDY    27  21  80 N18G24    30.00R WCI  13
WILLMAR        CLOUDY    25  18  74 N15       29.97R WCI  12
$$
MNZ033>034-036-042>043-049>051-058-059-230900-
   Central Minnesota

CITY           SKY/WX    TMP DP  RH WIND       PRES   REMARKS
ST CLOUD       FAIR      21  15  78 N12       29.90R WCI   9
SAUK CENTRE      N/A     21  17  83 N12       29.94R WCI   9
PAYNESVILLE    FAIR      21  18  88 NW7       29.93R WCI  13
AITKIN         FAIR      16  10  79 NW8       29.92R WCI   5
PINE RIVER     FAIR      18  12  79 NW5       29.98R WCI  11
BRAINERD       FAIR      19  14  81 N13       29.93R WCI   6
STAPLES        MOCLDY    19  16  86 N10       29.95S WCI   8
LONG PRAIRIE   MOCLDY    21  18  86 NW12G18   29.94R WCI   9
LITTLE FALLS   FAIR      21  12  68 NW9       29.93R WCI  11
LITCHFIELD     FAIR      25  19  80 N12       29.92R WCI  14
BUFFALO        FAIR      22  15  74 NW9       29.90R WCI  12
MAPLE LAKE     FAIR      23  18  80 MISG      29.90R
HUTCHINSON     FAIR      24  19  79 NW12G17   29.91R WCI  13
$$
MNZ037-044-045-052-053-230900-
   East Central Minnesota

CITY           SKY/WX    TMP DP  RH WIND       PRES   REMARKS
PRINCETON      FAIR      21  16  79 N9        29.89R WCI  11
MORA           FAIR      19  12  73 N7        29.91R WCI  10
CAMBRIDGE      FAIR      23  12  63 N8        29.89R WCI  14
RUSH CITY      FAIR      19  13  77 N10       29.88R WCI   8
MOOSE LAKE     FAIR      18  12  79 N7        29.88R WCI   8
HINCKLEY       FAIR      19  14  79 N9        29.89R WCI   9
CLOQUET        FAIR      14   9  79 N13       29.88R WCI   0
MCGREGOR       FAIR      18  14  86 N9        29.92R WCI   6
$$
MNZ071>073-080-081-089-090-097-098-230900-
   Southwest Minnesota

CITY           SKY/WX    TMP DP  RH WIND       PRES   REMARKS
MONTEVIDEO     CLOUDY    25  19  80 N17       29.98R WCI  11
GRANITE FALLS  CLOUDY    26  21  81 NW17G23   29.98R WCI  13
CANBY          CLOUDY    25  23  92 N14G20    30.00R WCI  13
MARSHALL       CLOUDY    24  21  88 N20       29.96R WCI  10
REDWOOD FALLS  CLOUDY    24  18  77 N10       29.94R WCI  14
OLIVIA         CLOUDY    27  19  74 N15G22    29.94R WCI  15
PIPESTONE      CLOUDY    21  19  93 N20G28    29.95R WCI   6
WINDOM         CLOUDY    25  10  54 NW28      29.90R HAZE    WCI   8
WORTHINGTON    CLOUDY    23  21  92 N25       29.91  WCI   7
JACKSON        CLOUDY    25  21  86 N21G31    29.89R WCI  10
TRACY          CLOUDY    25  22  91 N22       29.94R WCI  10
SLAYTON        CLOUDY    23  21  92 N17G24    29.93R WCI   9
$$
MNZ065>067-074>077-082>085-091>093-230900-
   South Central Minnesota

CITY           SKY/WX    TMP DP  RH WIND       PRES   REMARKS
MANKATO        CLOUDY    25  21  85 NW17      29.87R WCI  12
NEW ULM        CLOUDY    25  19  80 N16       29.91R WCI  12
ST JAMES         N/A     25  21  86 NW21      29.90  WCI  10
FAIRMONT       CLOUDY    25  23  92 NW23      29.88R WCI  10
FARIBAULT      CLOUDY    27  21  80 NW13G22   29.83R WCI  16
OWATONNA         N/A     25  21  86 NW14      29.81R WCI  13
WASECA         CLOUDY    25  21  86 NW22      29.83R WCI  10
ALBERT LEA     CLOUDY    25  21  86 N12G22    29.79R WCI  14
$$
MNZ078>079-086>088-094>096-230900-
   Southeast Minnesota

CITY           SKY/WX    TMP DP  RH WIND       PRES   REMARKS
ROCHESTER      LGT SNOW  24  23  96 N21G29    29.74R FOG     WCI   9
RED WING       LGT SNOW  27  19  74 NW6       29.81R WCI  20
STANTON        CLOUDY    27  21  80 N17       29.81S WCI  14
DODGE CENTER   LGT SNOW  23  21  93 N18       29.77R WCI   9
WINONA         LGT SNOW  30  27  86 N9G17     29.73R WCI  22
AUSTIN         CLOUDY    25  21  86 VRB15G28  29.75R WCI  12
PRESTON        CLOUDY    24  21  88 N16G22    29.71R WCI  11
$$
ABBREVIATIONS USED IN REMARKS
   TC - TEMPERATURES IN CELSIUS
  WCI - WIND CHILL INDEX
   HX - HEAT INDEX
  VSB - VISIBILITY
$$




USA.gov is the U.S. government's official web portal to all federal, state and local government web resources and services.